Windsor, Ontario

11:27 PM EDT on June 24, 2017 (GMT -0400)
Windsor

Weather History for CYQG - November, 2012

Change the Weather History Date:

Saturday, November 24, 2012

  Actual Average Record
Temperature  
Mean Temperature 32 °F -  
Max Temperature 34 °F 37 °F 60 °F (1999)
Min Temperature 30 °F 24 °F 14 °F (2005)
Degree Days  
Heating Degree Days 33    
Moisture  
Dew Point 18 °F    
Average Humidity 54    
Maximum Humidity 60    
Minimum Humidity 41    
Precipitation  
Precipitation 0.00 in 0.11 in - ()
Sea Level Pressure  
Sea Level Pressure 30.08 in    
Wind  
Wind Speed 14 mph ()    
Max Wind Speed 21 mph    
Max Gust Speed 24 mph    
Visibility 15.0 miles    
Events Snow    
Averages and records for this station are not official NWS values.
T = Trace of Precipitation, MM = Missing Value Source: Averaged Metar Reports

Daily Weather History Graph

Daily Weather History Graph

Search for Another Location

Airport or City:

Trip Planner

Search our weather history database for the weather conditions in past years. The results will help you decide how hot, cold, wet, or windy it might be!

Date:

Astronomy

Nov. 24, 2012 Rise Set
Actual Time 7:33 AM EST 5:03 PM EST
Civil Twilight 7:03 AM EST 5:34 PM EST
Nautical Twilight 6:28 AM EST 6:08 PM EST
Astronomical Twilight 5:54 AM EST 6:42 PM EST
Moon 2:50 PM EST (11/24) 3:46 AM EST (11/24)
Length of Visible Light 10h 31m
Length of Day
9h 29m
Waxing Gibbous, 87% of the Moon is Illuminated
Nov 24
Waxing Gibbous
Nov 28
Full
Dec 6
Last Quarter
Dec 13
New
Dec 20
First Quarter

Hourly Weather History & Observations

Time (EST) Temp. Windchill Dew Point Humidity Pressure Visibility Wind Dir Wind Speed Gust Speed Precip Events Conditions
12:00 AM 33.8 °F 24.3 °F 21.2 °F 60% 30.01 in 15.0 mi WNW 13.8 mph 21.9 mph N/A Snow Light Snow Showers
1:00 AM 34 °F - 19 °F 42% 30.02 in 15 mi WNW 19.6 mph - - Snow Light Snow Showers
1:00 AM 33.8 °F 23.5 °F 19.4 °F 56% 30.02 in 15.0 mi WNW 16.1 mph 21.9 mph N/A   Overcast
1:39 AM - - - N/A% - 15.0 mi WNW 17.3 mph 23.0 mph N/A   Overcast
2:00 AM 33.8 °F 23.2 °F 19.4 °F 56% 30.02 in 15.0 mi WNW 17.3 mph - N/A   Overcast
4:00 AM 33.8 °F 24.8 °F 19.4 °F 56% 30.04 in 15.0 mi WNW 12.7 mph - N/A   Overcast
5:00 AM 32.0 °F 21.6 °F 19.4 °F 60% 30.05 in 15.0 mi WNW 15.0 mph 20.7 mph N/A   Overcast
5:15 AM - - - N/A% - 15.0 mi WNW 20.7 mph - N/A   Unknown
6:00 AM 32.0 °F 20.8 °F 19.4 °F 60% 30.06 in 15.0 mi WNW 17.3 mph - N/A   Overcast
7:00 AM 32 °F - 19 °F 46% 30.07 in 15 mi WNW 18.4 mph - - Snow Light Snow Showers
7:00 AM 32.0 °F 22.1 °F 19.4 °F 60% 30.07 in 15.0 mi WNW 13.8 mph 20.7 mph N/A Snow Light Snow Showers
7:38 AM - - - N/A% - 15.0 mi WNW 15.0 mph 24.2 mph N/A   Mostly Cloudy
8:00 AM 32.0 °F 21.6 °F 19.4 °F 60% 30.09 in 15.0 mi WNW 15.0 mph 20.7 mph N/A   Mostly Cloudy
8:50 AM - - - N/A% - 15.0 mi WNW 17.3 mph - N/A   Unknown
9:00 AM 32.0 °F 20.8 °F 17.6 °F 55% 30.10 in 15.0 mi WNW 17.3 mph 23.0 mph N/A Snow Light Snow Showers
10:00 AM 33.8 °F 23.9 °F 19.4 °F 56% 30.11 in 15.0 mi WNW 15.0 mph 20.7 mph N/A   Mostly Cloudy
11:00 AM 33.8 °F 23.9 °F 19.4 °F 56% 30.12 in 15.0 mi WNW 15.0 mph - N/A   Mostly Cloudy
12:00 PM 33.8 °F 23.5 °F 17.6 °F 52% 30.10 in 15.0 mi WNW 16.1 mph 23.0 mph N/A   Mostly Cloudy
1:00 PM 33 °F - 18 °F 41% 30.09 in 15 mi WNW 15.0 mph - -   Partly Cloudy
1:00 PM 33.8 °F 24.8 °F 17.6 °F 52% 30.09 in 15.0 mi NW 12.7 mph 21.9 mph N/A   Mostly Cloudy
2:00 PM 33.8 °F 23.9 °F 17.6 °F 52% 30.09 in 15.0 mi WNW 15.0 mph 21.9 mph N/A   Mostly Cloudy
3:00 PM 33.8 °F 23.9 °F 17.6 °F 52% 30.09 in 15.0 mi WNW 15.0 mph - N/A   Mostly Cloudy
4:00 PM 33.8 °F 23.5 °F 15.8 °F 48% 30.10 in 15.0 mi WNW 16.1 mph - N/A   Mostly Cloudy
5:00 PM 32.0 °F 22.1 °F 17.6 °F 55% 30.10 in 15.0 mi WNW 13.8 mph - N/A   Overcast
6:00 PM 32.0 °F 23.0 °F 17.6 °F 55% 30.11 in 15.0 mi WNW 11.5 mph - N/A   Overcast
7:00 PM 31 °F - 17 °F 42% 30.11 in 15 mi West 10.4 mph - -   Overcast
7:00 PM 32.0 °F 23.0 °F 17.6 °F 55% 30.11 in 15.0 mi West 11.5 mph - N/A   Overcast
8:00 PM 32.0 °F 23.6 °F 17.6 °F 55% 30.11 in 15.0 mi WNW 10.4 mph - N/A   Overcast
9:00 PM 30.2 °F 22.6 °F 17.6 °F 60% 30.09 in 15.0 mi WNW 8.1 mph - N/A   Overcast
10:00 PM 30.2 °F 21.9 °F 17.6 °F 60% 30.09 in 15.0 mi WNW 9.2 mph - N/A   Mostly Cloudy
11:00 PM 30.2 °F 22.6 °F 17.6 °F 60% 30.07 in 15.0 mi West 8.1 mph - N/A   Mostly Cloudy